Regional Weather Roundup
Issued by NWS

Home | Current Version | Previous Version | Graphics & Text | Print | Product List | Glossary On
Versions: 1 2 3 4 5 6 7 8 9 10 11 12 13 14 15 16 17 18 19 20 21 22 23 24 25 26 27 28 29 30 31 32 33 34 35 36 37 38 39 40 41 42 43 44 45 46 47 48 49
000
ASUS45 KPSR 260410
RWRAZ

ARIZONA REGIONAL HOURLY WEATHER ROUNDUP
NATIONAL WEATHER SERVICE TUCSON AZ
900 PM MST SUN JUN 25 2017

NOTE: FAIR INDICATES FEW OR NO CLOUDS BELOW 12,000 FEET WITH NO
SIGNIFICANT WEATHER AND/OR OBSTRUCTIONS TO VISIBILITY.

AZZ001>003-036-260500-
NORTHWEST ARIZONA

CITY           SKY/WX    TMP DP  RH WIND       PRES   REMARKS
BULLHEAD CITY  CLEAR    111  23   4 W9        29.69R HX 102
KINGMAN        CLEAR     89  29  11 S9        29.97R
$$

AZZ004>008-015-016-018-260500-
NORTH CENTRAL ARIZONA

CITY           SKY/WX    TMP DP  RH WIND       PRES   REMARKS
GRAND CANYON   PTCLDY    61  38  42 CALM      30.30S
PRESCOTT       CLEAR     76  44  32 S6        30.16S
FLAGSTAFF      MOCLDY    63  50  62 CALM      30.32F
PAYSON         PTCLDY    77  41  27 CALM      30.21R
$$

AZZ009>014-017-260500-
NORTHEAST ARIZONA

CITY           SKY/WX    TMP DP  RH WIND       PRES   REMARKS
WINSLOW        PTCLDY    75  43  31 CALM      30.17S
SAINT JOHNS    CLOUDY    75  44  33 E3        30.24F
WINDOW ROCK    PTCLDY    71  36  27 S5        30.31R
SHOW LOW       MOCLDY    64  43  45 SE9       30.32F
$$

AZZ023-260500-
GREATER PHOENIX AREA

CITY           SKY/WX    TMP DP  RH WIND       PRES   REMARKS
PHOENIX        PTCLDY   106  44  12 W7        29.76R HX 101
BUCKEYE        CLEAR    100  46  16 SW10      29.77R
LUKE AFB       CLEAR    103  47  15 NE5       29.76R HX 100
DEER VALLEY    PTCLDY   102  44  14 NE10      29.80R
SCOTTSDALE     PTCLDY   104  43  12 NE14      29.82R
MESA-GATEWAY   PTCLDY   102  43  13 CALM      29.80R
CHANDLER       CLEAR    102  43  13 W12       29.78R
$$

AZZ027-028-260500-
SOUTHWEST MARICOPA COUNTY AND PINAL COUNTY

CITY           SKY/WX    TMP DP  RH WIND       PRES   REMARKS
CASA GRANDE      N/A    100  48  17 W8        29.81
$$

AZZ503-504-507>509-260500-
SOUTHEAST ARIZONA

CITY           SKY/WX    TMP DP  RH WIND       PRES   REMARKS
TUCSON         CLOUDY   102  40  12 NW6       29.95R
DAVIS-MONTHAN  PTCLDY    99  41  13 SW3       29.94R
NOGALES        CLOUDY    84  54  35 CALM      30.11R
SIERRA VISTA   CLOUDY    86  43  21 W10       30.16R
DOUGLAS        MOCLDY    86  46  24 W3        30.09R
SAFFORD        TSTM      76  65  68 S13       30.10R
$$

AZZ020-021-025-026-031-260500-
SOUTHWEST ARIZONA

CITY           SKY/WX    TMP DP  RH WIND       PRES   REMARKS
YUMA           CLEAR     96  63  33 S8        29.74R
$$

CAZ031-033-041-043-047-048-061-260500-
SOUTHERN CALIFORNIA

CITY           SKY/WX    TMP DP  RH WIND       PRES   REMARKS
DOWNTOWN L.A.  CLEAR     72  61  68 CALM      29.87S
L.A. AIRPORT   CLEAR     68  60  75 CALM      29.87F
SAN DIEGO      PTCLDY    68  63  84 VRB6      29.90R
BURBANK        CLEAR     79  59  50 E6        29.89R
ONTARIO        CLEAR     81  59  47 W5        29.90R
RIVERSIDE      CLEAR     84  58  40 CALM      29.90R
PALM SPRINGS   CLEAR    108  28   6 NW15G28   29.77R HX 100
EL CENTRO NAS  CLEAR    100  37  11 SW13      29.73R
IMPERIAL       MOCLDY    99  50  19 W8        29.71R
BLYTHE         PTCLDY   108  52  15 SW22      29.70  HX 105
$$

NVZ020-UTZ003-260500-
SOUTHERN NEVADA-UTAH

CITY           SKY/WX    TMP DP  RH WIND       PRES   REMARKS
LAS VEGAS      PTCLDY   104  13   4 SW17G29   29.83R
SALT LAKE CITY PTCLDY    80  54  40 N7        30.08S
$$

NMZ009-TXZ055-260500-
NEW MEXICO-WEST TEXAS

CITY           SKY/WX    TMP DP  RH WIND       PRES   REMARKS
ALBUQUERQUE    CLOUDY    70  51  51 E3        30.27R
EL PASO        MOCLDY    75  60  59 N9G24     30.20R
$$


........................KEY........................
SKY/WX - SKY CONDITION/WEATHER
TMP    - TEMPERATURE IN FAHRENHEIT
DP     - DEWPOINT IN FAHRENHEIT
RH     - RELATIVE HUMIDITY IN PERCENT
WIND   - DIRECTION AND SPEED IN MILES PER HOUR (MPH)
VRB    - VARIABLE WIND DIRECTION
PRES   - MEAN SEA LEVEL PRESSURE IN INCHES OF MERCURY
         F - FALLING PRESSURE   R - RISING PRESSURE
         S - STEADY PRESSURE
VSB    - VISIBILITY IN MILES
HX     - HEAT INDEX IN FAHRENHEIT
WCI    - WIND CHILL INDEX IN FAHRENHEIT
TC     - TEMPERATURE IN CELSIUS WHICH IS ALSO KNOWN AS
         TEMPERATURE IN CENTIGRADE
AFB    - AIR FORCE BASE
         LUKE AFB IS LUKE AIR FORCE BASE
         DAVIS-MONTHAN IS DAVIS-MONTHAN AIR FORCE BASE
NAS    - NAVAL AIR STATION
         EL CENTRO NAS IS EL CENTRO NAVAL AIR STATION
N/A    - NOT AVAILABLE





USA.gov is the U.S. government's official web portal to all federal, state and local government web resources and services.